Time,TemperatureF,DewpointF,PressureIn,WindDirection,WindDirectionDegrees,WindSpeedMPH,WindSpeedGustMPH,Humidity,HourlyPrecipIn,Conditions,Clouds,dailyrainin,SoftwareType,DateUTC
2013-02-17 00:01:00,47.8,13.3,30.02,SSE,157,0.0,0.0,25,0.00,,,0.00,WUHU21623XXSP,2013-02-17 08:01:00,
2013-02-17 00:06:00,48.0,12.5,30.01,SSE,157,0.0,0.0,24,0.00,,,0.00,WUHU21623XXSP,2013-02-17 08:06:00,
2013-02-17 00:11:00,48.0,12.5,30.01,SSE,157,0.0,0.0,24,0.00,,,0.00,WUHU21623XXSP,2013-02-17 08:11:00,
2013-02-17 00:16:00,48.0,12.5,30.01,SSE,157,0.0,0.0,24,0.00,,,0.00,WUHU21623XXSP,2013-02-17 08:16:00,
2013-02-17 00:21:00,48.0,12.5,30.01,SSE,157,0.0,0.0,24,0.00,,,0.00,WUHU21623XXSP,2013-02-17 08:21:00,
2013-02-17 00:26:00,48.0,12.5,30.01,SSE,157,0.0,0.0,24,0.00,,,0.00,WUHU21623XXSP,2013-02-17 08:26:00,
2013-02-17 00:31:00,47.8,12.4,30.00,SSE,157,0.0,0.0,24,0.00,,,0.00,WUHU21623XXSP,2013-02-17 08:31:00,
2013-02-17 00:36:00,47.7,12.2,30.00,SSE,157,0.0,0.0,24,0.00,,,0.00,WUHU21623XXSP,2013-02-17 08:36:00,
2013-02-17 00:41:00,47.5,12.1,30.00,SSE,157,0.0,0.0,24,0.00,,,0.00,WUHU21623XXSP,2013-02-17 08:41:00,
2013-02-17 00:46:00,47.1,12.7,30.00,SSE,157,0.0,0.0,25,0.00,,,0.00,WUHU21623XXSP,2013-02-17 08:46:00,
2013-02-17 00:51:00,47.1,11.8,30.00,SSE,157,0.0,0.0,24,0.00,,,0.00,WUHU21623XXSP,2013-02-17 08:51:00,
2013-02-17 00:56:00,46.8,12.4,30.00,SSE,157,0.0,0.0,25,0.00,,,0.00,WUHU21623XXSP,2013-02-17 08:56:00,
2013-02-17 01:01:00,46.6,12.3,30.00,SSE,157,0.0,0.0,25,0.00,,,0.00,WUHU21623XXSP,2013-02-17 09:01:00,
2013-02-17 01:06:00,46.6,12.3,30.00,SSE,157,0.0,0.0,25,0.00,,,0.00,WUHU21623XXSP,2013-02-17 09:06:00,
2013-02-17 01:11:00,46.2,11.9,30.00,SSE,157,0.0,0.0,25,0.00,,,0.00,WUHU21623XXSP,2013-02-17 09:11:00,
2013-02-17 01:16:00,46.2,11.9,30.00,SSE,157,0.0,0.0,25,0.00,,,0.00,WUHU21623XXSP,2013-02-17 09:16:00,
2013-02-17 01:21:00,46.2,11.9,30.00,SSE,157,0.0,0.0,25,0.00,,,0.00,WUHU21623XXSP,2013-02-17 09:21:00,
2013-02-17 01:26:00,46.2,11.9,29.99,SSE,157,0.0,0.0,25,0.00,,,0.00,WUHU21623XXSP,2013-02-17 09:26:00,
2013-02-17 01:31:00,46.2,11.9,29.99,SSE,157,0.0,0.0,25,0.00,,,0.00,WUHU21623XXSP,2013-02-17 09:31:00,
2013-02-17 01:36:00,46.2,11.9,29.99,SSE,157,0.0,0.0,25,0.00,,,0.00,WUHU21623XXSP,2013-02-17 09:36:00,
2013-02-17 01:41:00,46.2,12.9,29.99,SSE,157,0.0,0.0,26,0.00,,,0.00,WUHU21623XXSP,2013-02-17 09:41:00,
2013-02-17 01:46:00,46.0,11.8,29.99,SSE,157,0.0,0.0,25,0.00,,,0.00,WUHU21623XXSP,2013-02-17 09:46:00,
2013-02-17 01:51:00,46.0,12.7,29.99,SSE,157,0.0,0.0,26,0.00,,,0.00,WUHU21623XXSP,2013-02-17 09:51:00,
2013-02-17 01:56:00,45.7,12.4,29.98,SSE,157,0.0,0.0,26,0.00,,,0.00,WUHU21623XXSP,2013-02-17 09:56:00,
2013-02-17 02:01:00,45.7,12.4,29.98,SSE,157,0.0,0.0,26,0.00,,,0.00,WUHU21623XXSP,2013-02-17 10:01:00,
2013-02-17 02:06:00,45.5,12.3,29.98,SSE,157,0.0,0.0,26,0.00,,,0.00,WUHU21623XXSP,2013-02-17 10:06:00,
2013-02-17 02:11:00,45.5,12.3,29.98,SSE,157,0.0,0.0,26,0.00,,,0.00,WUHU21623XXSP,2013-02-17 10:11:00,
2013-02-17 02:16:00,45.7,12.4,29.98,SSE,157,0.0,0.0,26,0.00,,,0.00,WUHU21623XXSP,2013-02-17 10:16:00,
2013-02-17 02:21:00,45.5,11.3,29.97,SSE,157,0.0,0.0,25,0.00,,,0.00,WUHU21623XXSP,2013-02-17 10:21:00,
2013-02-17 02:26:00,45.3,11.2,29.97,SSE,157,0.0,0.0,25,0.00,,,0.00,WUHU21623XXSP,2013-02-17 10:26:00,
2013-02-17 02:31:00,45.3,11.2,29.97,SSE,157,0.0,0.0,25,0.00,,,0.00,WUHU21623XXSP,2013-02-17 10:31:00,
2013-02-17 02:36:00,45.3,11.2,29.97,SSE,157,0.0,0.0,25,0.00,,,0.00,WUHU21623XXSP,2013-02-17 10:36:00,
2013-02-17 02:41:00,45.1,11.0,29.97,SSE,157,0.0,0.0,25,0.00,,,0.00,WUHU21623XXSP,2013-02-17 10:41:00,
2013-02-17 02:46:00,45.3,11.2,29.97,SSE,157,0.0,0.0,25,0.00,,,0.00,WUHU21623XXSP,2013-02-17 10:46:00,
2013-02-17 02:51:00,45.1,11.0,29.97,SSE,157,0.0,0.0,25,0.00,,,0.00,WUHU21623XXSP,2013-02-17 10:51:00,
2013-02-17 02:56:00,45.0,10.9,29.97,SSE,157,0.0,0.0,25,0.00,,,0.00,WUHU21623XXSP,2013-02-17 10:56:00,
2013-02-17 03:01:00,45.0,11.8,29.96,SSE,157,0.0,0.0,26,0.00,,,0.00,WUHU21623XXSP,2013-02-17 11:01:00,
2013-02-17 03:06:00,44.6,11.5,29.96,SSE,157,0.0,0.0,26,0.00,,,0.00,WUHU21623XXSP,2013-02-17 11:06:00,
2013-02-17 03:11:00,44.4,11.3,29.96,SSE,157,0.0,0.0,26,0.00,,,0.00,WUHU21623XXSP,2013-02-17 11:11:00,
2013-02-17 03:16:00,44.4,11.3,29.96,SSE,157,0.0,0.0,26,0.00,,,0.00,WUHU21623XXSP,2013-02-17 11:16:00,
2013-02-17 03:21:00,44.4,12.2,29.96,SSE,157,0.0,0.0,27,0.00,,,0.00,WUHU21623XXSP,2013-02-17 11:21:00,
2013-02-17 03:26:00,44.1,11.0,29.96,SSE,157,0.0,0.0,26,0.00,,,0.00,WUHU21623XXSP,2013-02-17 11:26:00,
2013-02-17 03:31:00,43.9,11.7,29.96,SSE,157,0.0,0.0,27,0.00,,,0.00,WUHU21623XXSP,2013-02-17 11:31:00,
2013-02-17 03:36:00,44.1,11.0,29.95,SSE,157,0.0,0.0,26,0.00,,,0.00,WUHU21623XXSP,2013-02-17 11:36:00,
2013-02-17 03:41:00,44.4,11.3,29.95,SSE,157,0.0,0.0,26,0.00,,,0.00,WUHU21623XXSP,2013-02-17 11:41:00,
2013-02-17 03:46:00,44.6,12.4,29.95,SSE,157,0.0,0.0,27,0.00,,,0.00,WUHU21623XXSP,2013-02-17 11:46:00,
2013-02-17 03:51:00,44.8,12.5,29.95,SSE,157,0.0,0.0,27,0.00,,,0.00,WUHU21623XXSP,2013-02-17 11:51:00,
2013-02-17 03:56:00,44.8,12.5,29.95,SSE,157,0.0,0.0,27,0.00,,,0.00,WUHU21623XXSP,2013-02-17 11:56:00,
2013-02-17 04:02:00,45.0,12.7,29.95,SSE,157,0.0,0.0,27,0.00,,,0.00,WUHU21623XXSP,2013-02-17 12:02:00,
2013-02-17 04:07:00,45.1,11.9,29.94,SSE,157,0.0,0.0,26,0.00,,,0.00,WUHU21623XXSP,2013-02-17 12:07:00,
2013-02-17 04:12:00,45.0,11.8,29.94,SSE,157,0.0,0.0,26,0.00,,,0.00,WUHU21623XXSP,2013-02-17 12:12:00,
2013-02-17 04:17:00,44.8,11.6,29.95,SSE,157,0.0,0.0,26,0.00,,,0.00,WUHU21623XXSP,2013-02-17 12:17:00,
2013-02-17 04:22:00,44.8,11.6,29.95,SSE,157,0.0,0.0,26,0.00,,,0.00,WUHU21623XXSP,2013-02-17 12:22:00,
2013-02-17 04:27:00,44.4,11.3,29.94,SSE,157,0.0,0.0,26,0.00,,,0.00,WUHU21623XXSP,2013-02-17 12:27:00,
2013-02-17 04:32:00,44.4,11.3,29.94,SSE,157,0.0,0.0,26,0.00,,,0.00,WUHU21623XXSP,2013-02-17 12:32:00,
2013-02-17 04:37:00,44.4,11.3,29.94,SSE,157,0.0,0.0,26,0.00,,,0.00,WUHU21623XXSP,2013-02-17 12:37:00,
2013-02-17 04:42:00,44.4,11.3,29.94,SSE,157,0.0,0.0,26,0.00,,,0.00,WUHU21623XXSP,2013-02-17 12:42:00,
2013-02-17 04:47:00,45.0,10.9,29.94,SSE,157,0.0,0.0,25,0.00,,,0.00,WUHU21623XXSP,2013-02-17 12:47:00,
2013-02-17 04:52:00,45.1,11.0,29.94,SSE,157,0.0,0.0,25,0.00,,,0.00,WUHU21623XXSP,2013-02-17 12:52:00,
2013-02-17 04:57:00,45.1,11.9,29.95,SSE,157,0.0,0.0,26,0.00,,,0.00,WUHU21623XXSP,2013-02-17 12:57:00,
2013-02-17 05:02:00,44.8,11.6,29.94,SSE,157,0.0,0.0,26,0.00,,,0.00,WUHU21623XXSP,2013-02-17 13:02:00,
2013-02-17 05:07:00,44.4,11.3,29.95,SSE,157,0.0,0.0,26,0.00,,,0.00,WUHU21623XXSP,2013-02-17 13:07:00,
2013-02-17 05:12:00,44.2,11.2,29.95,SSE,157,0.0,0.0,26,0.00,,,0.00,WUHU21623XXSP,2013-02-17 13:12:00,
2013-02-17 05:17:00,44.2,12.1,29.94,SSE,157,0.0,0.0,27,0.00,,,0.00,WUHU21623XXSP,2013-02-17 13:17:00,
2013-02-17 05:22:00,44.1,11.9,29.95,SSE,157,0.0,0.0,27,0.00,,,0.00,WUHU21623XXSP,2013-02-17 13:22:00,
2013-02-17 05:27:00,44.1,11.9,29.95,SSE,157,0.0,0.0,27,0.00,,,0.00,WUHU21623XXSP,2013-02-17 13:27:00,
2013-02-17 05:32:00,44.2,12.1,29.95,SSE,157,0.0,0.0,27,0.00,,,0.00,WUHU21623XXSP,2013-02-17 13:32:00,
2013-02-17 05:37:00,44.2,12.1,29.95,SSE,157,0.0,0.0,27,0.00,,,0.00,WUHU21623XXSP,2013-02-17 13:37:00,
2013-02-17 05:42:00,44.2,12.1,29.95,SSE,157,0.0,0.0,27,0.00,,,0.00,WUHU21623XXSP,2013-02-17 13:42:00,
2013-02-17 05:47:00,44.2,12.1,29.94,SSE,157,0.0,0.0,27,0.00,,,0.00,WUHU21623XXSP,2013-02-17 13:47:00,
2013-02-17 05:52:00,44.4,12.2,29.95,SSE,157,0.0,0.0,27,0.00,,,0.00,WUHU21623XXSP,2013-02-17 13:52:00,
2013-02-17 05:57:00,44.4,12.2,29.95,SSE,157,0.0,0.0,27,0.00,,,0.00,WUHU21623XXSP,2013-02-17 13:57:00,
2013-02-17 06:02:00,44.4,12.2,29.95,SSE,157,0.0,0.0,27,0.00,,,0.00,WUHU21623XXSP,2013-02-17 14:02:00,
2013-02-17 06:07:00,44.4,12.2,29.95,SSE,157,0.0,0.0,27,0.00,,,0.00,WUHU21623XXSP,2013-02-17 14:07:00,
2013-02-17 06:12:00,44.4,12.2,29.94,SSE,157,0.0,0.0,27,0.00,,,0.00,WUHU21623XXSP,2013-02-17 14:12:00,
2013-02-17 06:17:00,44.2,12.1,29.94,SSE,157,0.0,0.0,27,0.00,,,0.00,WUHU21623XXSP,2013-02-17 14:17:00,
2013-02-17 06:22:00,43.9,11.7,29.95,SSE,157,0.0,0.0,27,0.00,,,0.00,WUHU21623XXSP,2013-02-17 14:22:00,
2013-02-17 06:27:00,43.9,12.6,29.95,SSE,157,0.0,0.0,28,0.00,,,0.00,WUHU21623XXSP,2013-02-17 14:27:00,
2013-02-17 06:32:00,43.9,13.5,29.95,SSE,157,0.0,0.0,29,0.00,,,0.00,WUHU21623XXSP,2013-02-17 14:32:00,
2013-02-17 06:37:00,43.9,13.5,29.95,SSE,157,0.0,0.0,29,0.00,,,0.00,WUHU21623XXSP,2013-02-17 14:37:00,
2013-02-17 06:42:00,43.5,13.2,29.95,SSE,157,0.0,0.0,29,0.00,,,0.00,WUHU21623XXSP,2013-02-17 14:42:00,
2013-02-17 06:47:00,43.5,13.2,29.95,SSE,157,0.0,0.0,29,0.00,,,0.00,WUHU21623XXSP,2013-02-17 14:47:00,
2013-02-17 06:52:00,43.9,13.5,29.95,SSE,157,0.0,0.0,29,0.00,,,0.00,WUHU21623XXSP,2013-02-17 14:52:00,
2013-02-17 06:57:00,43.7,13.4,29.95,SSE,157,0.0,0.0,29,0.00,,,0.00,WUHU21623XXSP,2013-02-17 14:57:00,
2013-02-17 07:02:00,43.5,13.2,29.95,SSE,157,0.0,0.0,29,0.00,,,0.00,WUHU21623XXSP,2013-02-17 15:02:00,
2013-02-17 07:07:00,43.7,13.4,29.95,SSE,157,0.0,0.0,29,0.00,,,0.00,WUHU21623XXSP,2013-02-17 15:07:00,
2013-02-17 07:12:00,44.2,13.9,29.95,SSE,157,0.0,0.0,29,0.00,,,0.00,WUHU21623XXSP,2013-02-17 15:12:00,
2013-02-17 07:17:00,44.8,14.3,29.95,SSE,157,0.0,0.0,29,0.00,,,0.00,WUHU21623XXSP,2013-02-17 15:17:00,
2013-02-17 07:22:00,45.5,15.0,29.95,SSE,157,0.0,0.0,29,0.00,,,0.00,WUHU21623XXSP,2013-02-17 15:22:00,
2013-02-17 07:27:00,46.0,15.5,29.95,SSE,157,0.0,0.0,29,0.00,,,0.00,WUHU21623XXSP,2013-02-17 15:27:00,
2013-02-17 07:32:00,46.6,15.9,29.95,SSE,157,0.0,0.0,29,0.00,,,0.00,WUHU21623XXSP,2013-02-17 15:32:00,
2013-02-17 07:37:00,47.1,16.4,29.95,SSE,157,0.0,0.0,29,0.00,,,0.00,WUHU21623XXSP,2013-02-17 15:37:00,
2013-02-17 07:42:00,48.0,16.3,29.95,SSE,157,0.0,0.0,28,0.00,,,0.00,WUHU21623XXSP,2013-02-17 15:42:00,
2013-02-17 07:47:00,48.9,17.0,29.95,SSE,157,0.0,0.0,28,0.00,,,0.00,WUHU21623XXSP,2013-02-17 15:47:00,
2013-02-17 07:52:00,49.8,16.8,29.95,SSE,157,0.0,0.0,27,0.00,,,0.00,WUHU21623XXSP,2013-02-17 15:52:00,
2013-02-17 07:57:00,50.7,16.7,29.94,SSE,157,0.0,0.0,26,0.00,,,0.00,WUHU21623XXSP,2013-02-17 15:57:00,
2013-02-17 08:02:00,52.0,17.8,29.94,SSE,157,0.0,0.0,26,0.00,,,0.00,WUHU21623XXSP,2013-02-17 16:02:00,
2013-02-17 08:07:00,53.4,18.1,29.95,SSE,157,0.0,0.0,25,0.00,,,0.00,WUHU21623XXSP,2013-02-17 16:07:00,
2013-02-17 08:12:00,53.8,19.3,29.95,SSE,157,0.0,1.1,26,0.00,,,0.00,WUHU21623XXSP,2013-02-17 16:12:00,
2013-02-17 08:17:00,53.4,19.0,29.95,SSE,157,0.0,1.1,26,0.00,,,0.00,WUHU21623XXSP,2013-02-17 16:17:00,
2013-02-17 08:22:00,54.1,18.7,29.95,SSE,157,0.0,0.0,25,0.00,,,0.00,WUHU21623XXSP,2013-02-17 16:22:00,
2013-02-17 08:27:00,54.9,19.3,29.95,SSE,157,0.0,0.0,25,0.00,,,0.00,WUHU21623XXSP,2013-02-17 16:27:00,
2013-02-17 08:32:00,55.6,19.0,29.95,SSE,157,0.0,0.0,24,0.00,,,0.00,WUHU21623XXSP,2013-02-17 16:32:00,
2013-02-17 08:37:00,56.5,19.7,29.95,SSE,157,0.0,0.0,24,0.00,,,0.00,WUHU21623XXSP,2013-02-17 16:37:00,
2013-02-17 08:42:00,57.4,20.5,29.94,SSE,157,0.0,0.0,24,0.00,,,0.00,WUHU21623XXSP,2013-02-17 16:42:00,
2013-02-17 08:47:00,57.7,20.8,29.95,SSE,157,0.0,0.0,24,0.00,,,0.00,WUHU21623XXSP,2013-02-17 16:47:00,
2013-02-17 08:52:00,58.1,20.1,29.95,SSE,157,0.0,0.0,23,0.00,,,0.00,WUHU21623XXSP,2013-02-17 16:52:00,
2013-02-17 08:57:00,58.3,19.3,29.95,SSE,157,2.5,2.5,22,0.00,,,0.00,WUHU21623XXSP,2013-02-17 16:57:00,
2013-02-17 09:02:00,59.2,20.0,29.94,SSE,157,0.0,2.5,22,0.00,,,0.00,WUHU21623XXSP,2013-02-17 17:02:00,
2013-02-17 09:07:00,59.9,19.7,29.94,SSE,157,0.0,2.5,21,0.00,,,0.00,WUHU21623XXSP,2013-02-17 17:07:00,
2013-02-17 09:12:00,59.9,19.7,29.94,SSE,157,0.0,0.0,21,0.00,,,0.00,WUHU21623XXSP,2013-02-17 17:12:00,
2013-02-17 09:17:00,60.4,20.2,29.94,SSE,157,0.0,0.0,21,0.00,,,0.00,WUHU21623XXSP,2013-02-17 17:17:00,
2013-02-17 09:22:00,61.5,20.2,29.94,South,180,0.0,2.9,20,0.00,,,0.00,WUHU21623XXSP,2013-02-17 17:22:00,
2013-02-17 09:27:00,61.9,20.4,29.94,South,180,0.0,2.9,20,0.00,,,0.00,WUHU21623XXSP,2013-02-17 17:27:00,
2013-02-17 09:32:00,62.6,21.0,29.94,SSW,202,4.7,7.4,20,0.00,,,0.00,WUHU21623XXSP,2013-02-17 17:32:00,
2013-02-17 09:37:00,63.0,21.3,29.95,SSW,202,0.0,8.5,20,0.00,,,0.00,WUHU21623XXSP,2013-02-17 17:37:00,
2013-02-17 09:42:00,63.5,20.2,29.94,SSW,202,0.0,8.5,19,0.00,,,0.00,WUHU21623XXSP,2013-02-17 17:42:00,
2013-02-17 09:47:00,64.0,20.6,29.94,SSW,202,0.0,7.6,19,0.00,,,0.00,WUHU21623XXSP,2013-02-17 17:47:00,
2013-02-17 09:52:00,64.2,20.7,29.94,South,180,0.0,5.4,19,0.00,,,0.00,WUHU21623XXSP,2013-02-17 17:52:00,
2013-02-17 09:57:00,64.8,21.2,29.94,South,180,1.6,6.9,19,0.00,,,0.00,WUHU21623XXSP,2013-02-17 17:57:00,
2013-02-17 10:03:00,65.1,19.9,29.95,South,180,0.0,7.4,18,0.00,,,0.00,WUHU21623XXSP,2013-02-17 18:03:00,
2013-02-17 10:08:00,64.8,19.6,29.95,South,180,0.0,7.4,18,0.00,,,0.00,WUHU21623XXSP,2013-02-17 18:08:00,
2013-02-17 10:13:00,64.9,19.7,29.95,South,180,1.8,6.9,18,0.00,,,0.00,WUHU21623XXSP,2013-02-17 18:13:00,
2013-02-17 10:18:00,65.1,19.9,29.94,South,180,0.0,6.9,18,0.00,,,0.00,WUHU21623XXSP,2013-02-17 18:18:00,
2013-02-17 10:23:00,65.8,20.4,29.94,South,180,0.0,10.3,18,0.00,,,0.00,WUHU21623XXSP,2013-02-17 18:23:00,
2013-02-17 10:28:00,66.0,20.6,29.94,South,180,2.2,10.3,18,0.00,,,0.00,WUHU21623XXSP,2013-02-17 18:28:00,
2013-02-17 10:33:00,66.0,20.6,29.94,SSE,157,0.0,10.1,18,0.00,,,0.00,WUHU21623XXSP,2013-02-17 18:33:00,
2013-02-17 10:38:00,66.0,20.6,29.94,SSE,157,4.9,10.1,18,0.00,,,0.00,WUHU21623XXSP,2013-02-17 18:38:00,
2013-02-17 10:43:00,66.0,20.6,29.94,South,180,8.3,9.8,18,0.00,,,0.00,WUHU21623XXSP,2013-02-17 18:43:00,
2013-02-17 10:48:00,66.0,20.6,29.94,South,180,0.0,8.3,18,0.00,,,0.00,WUHU21623XXSP,2013-02-17 18:48:00,
2013-02-17 10:53:00,66.7,21.2,29.94,South,180,2.7,6.7,18,0.00,,,0.00,WUHU21623XXSP,2013-02-17 18:53:00,
2013-02-17 10:58:00,66.7,21.2,29.94,South,180,1.8,4.9,18,0.00,,,0.00,WUHU21623XXSP,2013-02-17 18:58:00,
2013-02-17 11:03:00,67.3,21.7,29.94,South,180,3.1,6.7,18,0.00,,,0.00,WUHU21623XXSP,2013-02-17 19:03:00,
2013-02-17 11:08:00,67.6,20.4,29.94,SSW,202,0.0,8.7,17,0.00,,,0.00,WUHU21623XXSP,2013-02-17 19:08:00,
2013-02-17 11:13:00,67.6,22.0,29.94,South,180,0.0,8.7,18,0.00,,,0.00,WUHU21623XXSP,2013-02-17 19:13:00,
2013-02-17 11:18:00,67.8,22.2,29.94,South,180,0.0,3.1,18,0.00,,,0.00,WUHU21623XXSP,2013-02-17 19:18:00,
2013-02-17 11:23:00,67.8,20.6,29.93,South,180,0.0,5.8,17,0.00,,,0.00,WUHU21623XXSP,2013-02-17 19:23:00,
2013-02-17 11:28:00,68.2,20.8,29.93,South,180,3.4,7.6,17,0.00,,,0.00,WUHU21623XXSP,2013-02-17 19:28:00,
2013-02-17 11:33:00,66.9,19.8,29.93,ESE,112,0.0,8.9,17,0.00,,,0.00,WUHU21623XXSP,2013-02-17 19:33:00,
2013-02-17 11:38:00,67.5,20.2,29.93,SE,135,0.0,8.9,17,0.00,,,0.00,WUHU21623XXSP,2013-02-17 19:38:00,
2013-02-17 11:43:00,67.8,20.6,29.92,SSE,157,0.0,6.7,17,0.00,,,0.00,WUHU21623XXSP,2013-02-17 19:43:00,
2013-02-17 11:48:00,68.2,20.8,29.92,SSE,157,0.0,1.3,17,0.00,,,0.00,WUHU21623XXSP,2013-02-17 19:48:00,
2013-02-17 11:53:00,67.8,20.6,29.92,SSE,157,0.0,1.3,17,0.00,,,0.00,WUHU21623XXSP,2013-02-17 19:53:00,
2013-02-17 11:58:00,67.8,20.6,29.92,SSE,157,0.0,1.6,17,0.00,,,0.00,WUHU21623XXSP,2013-02-17 19:58:00,
2013-02-17 12:03:00,68.4,21.0,29.93,NE,45,0.0,3.4,17,0.00,,,0.00,WUHU21623XXSP,2013-02-17 20:03:00,
2013-02-17 12:08:00,67.5,20.2,29.92,NNE,22,2.9,7.2,17,0.00,,,0.00,WUHU21623XXSP,2013-02-17 20:08:00,
2013-02-17 12:13:00,67.1,19.9,29.92,East,90,8.1,9.6,17,0.00,,,0.00,WUHU21623XXSP,2013-02-17 20:13:00,
2013-02-17 12:18:00,67.8,20.6,29.92,ESE,112,0.0,11.0,17,0.00,,,0.00,WUHU21623XXSP,2013-02-17 20:18:00,
2013-02-17 12:23:00,67.1,19.9,29.92,NNE,22,4.3,11.0,17,0.00,,,0.00,WUHU21623XXSP,2013-02-17 20:23:00,
2013-02-17 12:28:00,67.6,20.4,29.91,North,0,1.1,10.7,17,0.00,,,0.00,WUHU21623XXSP,2013-02-17 20:28:00,
2013-02-17 12:33:00,66.9,19.8,29.91,NNE,22,0.0,8.5,17,0.00,,,0.00,WUHU21623XXSP,2013-02-17 20:33:00,
2013-02-17 12:38:00,67.6,20.4,29.91,NNE,22,0.0,8.5,17,0.00,,,0.00,WUHU21623XXSP,2013-02-17 20:38:00,
2013-02-17 12:43:00,68.4,19.4,29.90,ENE,67,2.9,6.7,16,0.00,,,0.00,WUHU21623XXSP,2013-02-17 20:43:00,
2013-02-17 12:48:00,67.8,18.9,29.90,WSW,247,5.4,6.7,16,0.00,,,0.00,WUHU21623XXSP,2013-02-17 20:48:00,
2013-02-17 12:53:00,67.8,18.9,29.90,WSW,247,7.2,9.6,16,0.00,,,0.00,WUHU21623XXSP,2013-02-17 20:53:00,
2013-02-17 12:58:00,67.3,20.1,29.90,WSW,247,0.0,9.6,17,0.00,,,0.00,WUHU21623XXSP,2013-02-17 20:58:00,
2013-02-17 13:03:00,66.9,19.8,29.90,WSW,247,0.0,8.1,17,0.00,,,0.00,WUHU21623XXSP,2013-02-17 21:03:00,
2013-02-17 13:08:00,67.3,20.1,29.90,WSW,247,0.0,8.1,17,0.00,,,0.00,WUHU21623XXSP,2013-02-17 21:08:00,
2013-02-17 13:13:00,68.5,19.5,29.90,WSW,247,0.0,7.2,16,0.00,,,0.00,WUHU21623XXSP,2013-02-17 21:13:00,
2013-02-17 13:18:00,68.2,19.2,29.90,WSW,247,0.0,7.2,16,0.00,,,0.00,WUHU21623XXSP,2013-02-17 21:18:00,
2013-02-17 13:23:00,68.2,20.8,29.89,WSW,247,0.0,6.9,17,0.00,,,0.00,WUHU21623XXSP,2013-02-17 21:23:00,
2013-02-17 13:28:00,67.8,20.6,29.89,NE,45,0.0,6.9,17,0.00,,,0.00,WUHU21623XXSP,2013-02-17 21:28:00,
2013-02-17 13:34:00,68.2,20.8,29.89,WSW,247,0.0,8.1,17,0.00,,,0.00,WUHU21623XXSP,2013-02-17 21:34:00,
2013-02-17 13:39:00,68.4,21.0,29.89,WSW,247,5.6,8.1,17,0.00,,,0.00,WUHU21623XXSP,2013-02-17 21:39:00,
2013-02-17 13:44:00,67.8,20.6,29.89,WSW,247,0.0,6.9,17,0.00,,,0.00,WUHU21623XXSP,2013-02-17 21:44:00,
2013-02-17 13:49:00,68.4,21.0,29.89,WSW,247,0.0,7.2,17,0.00,,,0.00,WUHU21623XXSP,2013-02-17 21:49:00,
2013-02-17 13:54:00,68.7,21.3,29.89,WSW,247,0.0,8.9,17,0.00,,,0.00,WUHU21623XXSP,2013-02-17 21:54:00,
2013-02-17 13:59:00,68.4,21.0,29.89,WSW,247,0.0,8.9,17,0.00,,,0.00,WUHU21623XXSP,2013-02-17 21:59:00,
2013-02-17 14:04:00,68.7,21.3,29.89,WSW,247,0.0,4.5,17,0.00,,,0.00,WUHU21623XXSP,2013-02-17 22:04:00,
2013-02-17 14:09:00,69.3,23.3,29.89,WSW,247,0.0,2.7,18,0.00,,,0.00,WUHU21623XXSP,2013-02-17 22:09:00,
2013-02-17 14:14:00,69.4,23.4,29.89,WSW,247,0.0,7.4,18,0.00,,,0.00,WUHU21623XXSP,2013-02-17 22:14:00,
2013-02-17 14:19:00,69.4,23.4,29.89,WSW,247,0.0,7.4,18,0.00,,,0.00,WUHU21623XXSP,2013-02-17 22:19:00,
2013-02-17 14:24:00,69.6,23.6,29.89,WSW,247,4.0,6.0,18,0.00,,,0.00,WUHU21623XXSP,2013-02-17 22:24:00,
2013-02-17 14:29:00,69.6,23.6,29.89,WSW,247,4.0,9.8,18,0.00,,,0.00,WUHU21623XXSP,2013-02-17 22:29:00,
2013-02-17 14:34:00,69.3,23.3,29.89,WSW,247,8.3,11.0,18,0.00,,,0.00,WUHU21623XXSP,2013-02-17 22:34:00,
2013-02-17 14:39:00,69.4,23.4,29.89,WSW,247,0.0,15.4,18,0.00,,,0.00,WUHU21623XXSP,2013-02-17 22:39:00,
2013-02-17 14:44:00,69.4,23.4,29.89,WSW,247,8.9,15.4,18,0.00,,,0.00,WUHU21623XXSP,2013-02-17 22:44:00,
2013-02-17 14:49:00,69.3,24.9,29.90,WSW,247,0.0,12.1,19,0.00,,,0.00,WUHU21623XXSP,2013-02-17 22:49:00,
2013-02-17 14:54:00,69.1,24.8,29.89,WSW,247,2.9,13.4,19,0.00,,,0.00,WUHU21623XXSP,2013-02-17 22:54:00,
2013-02-17 14:59:00,68.9,24.6,29.89,WSW,247,4.9,13.4,19,0.00,,,0.00,WUHU21623XXSP,2013-02-17 22:59:00,
2013-02-17 15:04:00,68.9,24.6,29.89,WSW,247,6.7,11.6,19,0.00,,,0.00,WUHU21623XXSP,2013-02-17 23:04:00,
2013-02-17 15:09:00,68.7,24.5,29.89,WSW,247,7.8,12.5,19,0.00,,,0.00,WUHU21623XXSP,2013-02-17 23:09:00,
2013-02-17 15:14:00,68.4,24.2,29.89,WSW,247,2.9,12.5,19,0.00,,,0.00,WUHU21623XXSP,2013-02-17 23:14:00,
2013-02-17 15:19:00,68.0,23.9,29.90,WSW,247,2.9,11.6,19,0.00,,,0.00,WUHU21623XXSP,2013-02-17 23:19:00,
2013-02-17 15:24:00,67.8,23.8,29.90,WSW,247,3.4,11.6,19,0.00,,,0.00,WUHU21623XXSP,2013-02-17 23:24:00,
2013-02-17 15:29:00,67.6,23.6,29.90,WSW,247,9.2,10.7,19,0.00,,,0.00,WUHU21623XXSP,2013-02-17 23:29:00,
2013-02-17 15:34:00,67.3,23.3,29.90,WSW,247,4.9,11.0,19,0.00,,,0.00,WUHU21623XXSP,2013-02-17 23:34:00,
2013-02-17 15:39:00,67.1,23.1,29.90,WSW,247,9.6,11.0,19,0.00,,,0.00,WUHU21623XXSP,2013-02-17 23:39:00,
2013-02-17 15:44:00,67.1,24.7,29.90,WSW,247,0.0,10.1,20,0.00,,,0.00,WUHU21623XXSP,2013-02-17 23:44:00,
2013-02-17 15:49:00,66.7,24.4,29.90,WSW,247,1.6,9.6,20,0.00,,,0.00,WUHU21623XXSP,2013-02-17 23:49:00,
2013-02-17 15:54:00,67.1,24.7,29.90,WSW,247,0.0,9.6,20,0.00,,,0.00,WUHU21623XXSP,2013-02-17 23:54:00,
2013-02-17 15:59:00,66.7,24.4,29.90,WSW,247,7.4,13.0,20,0.00,,,0.00,WUHU21623XXSP,2013-02-17 23:59:00,
2013-02-17 16:04:00,66.4,24.1,29.90,WSW,247,3.6,13.0,20,0.00,,,0.00,WUHU21623XXSP,2013-02-18 00:04:00,
2013-02-17 16:09:00,66.0,23.8,29.90,WSW,247,7.2,11.0,20,0.00,,,0.00,WUHU21623XXSP,2013-02-18 00:09:00,
2013-02-17 16:14:00,65.8,24.6,29.89,WSW,247,0.0,9.8,21,0.00,,,0.00,WUHU21623XXSP,2013-02-18 00:14:00,
2013-02-17 16:19:00,65.8,25.6,29.90,WSW,247,0.0,10.5,22,0.00,,,0.00,WUHU21623XXSP,2013-02-18 00:19:00,
2013-02-17 16:24:00,65.5,25.3,29.90,WSW,247,6.0,11.6,22,0.00,,,0.00,WUHU21623XXSP,2013-02-18 00:24:00,
2013-02-17 16:29:00,64.9,24.9,29.90,WSW,247,0.0,12.1,22,0.00,,,0.00,WUHU21623XXSP,2013-02-18 00:29:00,
2013-02-17 16:34:00,64.8,24.7,29.90,WSW,247,3.4,12.1,22,0.00,,,0.00,WUHU21623XXSP,2013-02-18 00:34:00,
2013-02-17 16:39:00,64.6,24.6,29.90,WSW,247,3.6,8.1,22,0.00,,,0.00,WUHU21623XXSP,2013-02-18 00:39:00,
2013-02-17 16:44:00,64.2,24.3,29.90,WSW,247,11.2,11.2,22,0.00,,,0.00,WUHU21623XXSP,2013-02-18 00:44:00,
2013-02-17 16:49:00,63.9,25.0,29.90,WSW,247,2.9,11.2,23,0.00,,,0.00,WUHU21623XXSP,2013-02-18 00:49:00,
2013-02-17 16:54:00,63.5,24.7,29.90,WSW,247,2.2,8.3,23,0.00,,,0.00,WUHU21623XXSP,2013-02-18 00:54:00,
2013-02-17 16:59:00,63.3,24.5,29.90,WSW,247,6.3,8.3,23,0.00,,,0.00,WUHU21623XXSP,2013-02-18 00:59:00,
2013-02-17 17:04:00,63.0,24.2,29.90,WSW,247,0.0,7.4,23,0.00,,,0.00,WUHU21623XXSP,2013-02-18 01:04:00,
2013-02-17 17:09:00,62.6,23.9,29.90,SW,225,3.8,8.5,23,0.00,,,0.00,WUHU21623XXSP,2013-02-18 01:09:00,
2013-02-17 17:14:00,62.4,24.7,29.90,SW,225,0.0,8.5,24,0.00,,,0.00,WUHU21623XXSP,2013-02-18 01:14:00,
2013-02-17 17:19:00,61.9,24.3,29.90,SW,225,0.0,7.2,24,0.00,,,0.00,WUHU21623XXSP,2013-02-18 01:19:00,
2013-02-17 17:24:00,61.5,24.0,29.90,SW,225,0.0,7.2,24,0.00,,,0.00,WUHU21623XXSP,2013-02-18 01:24:00,
2013-02-17 17:29:00,61.3,23.8,29.91,SW,225,0.0,6.0,24,0.00,,,0.00,WUHU21623XXSP,2013-02-18 01:29:00,
2013-02-17 17:34:00,61.0,23.5,29.91,SW,225,0.0,6.0,24,0.00,,,0.00,WUHU21623XXSP,2013-02-18 01:34:00,
2013-02-17 17:39:00,60.6,24.2,29.91,SW,225,2.0,6.7,25,0.00,,,0.00,WUHU21623XXSP,2013-02-18 01:39:00,
2013-02-17 17:44:00,60.4,24.0,29.91,SW,225,2.7,6.7,25,0.00,,,0.00,WUHU21623XXSP,2013-02-18 01:44:00,
2013-02-17 17:49:00,60.1,23.7,29.91,SW,225,0.0,5.4,25,0.00,,,0.00,WUHU21623XXSP,2013-02-18 01:49:00,
2013-02-17 17:54:00,59.9,24.5,29.91,SW,225,0.0,5.6,26,0.00,,,0.00,WUHU21623XXSP,2013-02-18 01:54:00,
2013-02-17 17:59:00,59.5,24.2,29.91,SW,225,0.0,5.6,26,0.00,,,0.00,WUHU21623XXSP,2013-02-18 01:59:00,
2013-02-17 18:05:00,58.8,23.6,29.91,SW,225,0.0,4.3,26,0.00,,,0.00,WUHU21623XXSP,2013-02-18 02:05:00,
2013-02-17 18:10:00,58.8,24.6,29.92,SW,225,0.0,4.5,27,0.00,,,0.00,WUHU21623XXSP,2013-02-18 02:10:00,
2013-02-17 18:15:00,58.6,24.4,29.92,SW,225,0.0,5.8,27,0.00,,,0.00,WUHU21623XXSP,2013-02-18 02:15:00,
2013-02-17 18:20:00,58.3,24.1,29.92,SW,225,5.1,5.8,27,0.00,,,0.00,WUHU21623XXSP,2013-02-18 02:20:00,
2013-02-17 18:25:00,58.1,24.9,29.92,SW,225,0.0,5.1,28,0.00,,,0.00,WUHU21623XXSP,2013-02-18 02:25:00,
2013-02-17 18:30:00,57.9,24.8,29.92,SW,225,0.0,0.7,28,0.00,,,0.00,WUHU21623XXSP,2013-02-18 02:30:00,
2013-02-17 18:35:00,57.7,24.6,29.92,SW,225,0.0,0.0,28,0.00,,,0.00,WUHU21623XXSP,2013-02-18 02:35:00,
2013-02-17 18:40:00,57.6,24.5,29.92,SW,225,0.0,0.0,28,0.00,,,0.00,WUHU21623XXSP,2013-02-18 02:40:00,
2013-02-17 18:45:00,57.0,24.0,29.92,SW,225,0.0,5.8,28,0.00,,,0.00,WUHU21623XXSP,2013-02-18 02:45:00,
2013-02-17 18:50:00,56.5,24.5,29.92,SW,225,3.6,5.8,29,0.00,,,0.00,WUHU21623XXSP,2013-02-18 02:50:00,
2013-02-17 18:55:00,56.1,25.1,29.92,SW,225,0.0,4.5,30,0.00,,,0.00,WUHU21623XXSP,2013-02-18 02:55:00,
2013-02-17 19:00:00,56.3,25.3,29.93,SW,225,0.0,4.0,30,0.00,,,0.00,WUHU21623XXSP,2013-02-18 03:00:00,
2013-02-17 19:05:00,56.3,24.3,29.93,SW,225,0.0,0.0,29,0.00,,,0.00,WUHU21623XXSP,2013-02-18 03:05:00,
2013-02-17 19:10:00,55.9,24.0,29.92,SW,225,0.0,0.0,29,0.00,,,0.00,WUHU21623XXSP,2013-02-18 03:10:00,
2013-02-17 19:15:00,55.6,24.6,29.93,SW,225,0.0,3.1,30,0.00,,,0.00,WUHU21623XXSP,2013-02-18 03:15:00,
2013-02-17 19:20:00,55.4,24.4,29.93,SW,225,0.0,3.1,30,0.00,,,0.00,WUHU21623XXSP,2013-02-18 03:20:00,
2013-02-17 19:25:00,55.2,24.3,29.93,SW,225,0.0,0.0,30,0.00,,,0.00,WUHU21623XXSP,2013-02-18 03:25:00,
2013-02-17 19:30:00,54.7,23.9,29.93,SW,225,0.0,0.0,30,0.00,,,0.00,WUHU21623XXSP,2013-02-18 03:30:00,
2013-02-17 19:35:00,54.3,23.6,29.93,SW,225,0.0,0.0,30,0.00,,,0.00,WUHU21623XXSP,2013-02-18 03:35:00,
2013-02-17 19:40:00,54.0,24.0,29.93,SW,225,0.0,0.0,31,0.00,,,0.00,WUHU21623XXSP,2013-02-18 03:40:00,
2013-02-17 19:45:00,54.0,24.0,29.93,SW,225,0.0,0.0,31,0.00,,,0.00,WUHU21623XXSP,2013-02-18 03:45:00,
2013-02-17 19:50:00,54.0,24.0,29.93,SW,225,0.0,0.0,31,0.00,,,0.00,WUHU21623XXSP,2013-02-18 03:50:00,
2013-02-17 19:55:00,53.8,23.8,29.93,SW,225,0.0,0.0,31,0.00,,,0.00,WUHU21623XXSP,2013-02-18 03:55:00,
2013-02-17 20:00:00,53.4,23.5,29.93,SW,225,0.0,0.0,31,0.00,,,0.00,WUHU21623XXSP,2013-02-18 04:00:00,
2013-02-17 20:05:00,53.2,23.4,29.93,SW,225,0.0,0.0,31,0.00,,,0.00,WUHU21623XXSP,2013-02-18 04:05:00,
2013-02-17 20:10:00,52.9,23.7,29.93,SW,225,0.0,0.0,32,0.00,,,0.00,WUHU21623XXSP,2013-02-18 04:10:00,
2013-02-17 20:15:00,52.9,23.7,29.93,SW,225,0.0,0.0,32,0.00,,,0.00,WUHU21623XXSP,2013-02-18 04:15:00,
2013-02-17 20:20:00,52.9,23.7,29.94,SW,225,0.0,0.0,32,0.00,,,0.00,WUHU21623XXSP,2013-02-18 04:20:00,
2013-02-17 20:25:00,52.3,23.2,29.95,SW,225,0.0,0.0,32,0.00,,,0.00,WUHU21623XXSP,2013-02-18 04:25:00,
2013-02-17 20:30:00,52.0,22.9,29.94,SW,225,0.0,0.0,32,0.00,,,0.00,WUHU21623XXSP,2013-02-18 04:30:00,
2013-02-17 20:35:00,51.8,22.7,29.95,SW,225,0.0,0.0,32,0.00,,,0.00,WUHU21623XXSP,2013-02-18 04:35:00,
2013-02-17 20:40:00,52.0,22.9,29.95,SW,225,0.0,0.0,32,0.00,,,0.00,WUHU21623XXSP,2013-02-18 04:40:00,
2013-02-17 20:45:00,52.0,22.9,29.95,SW,225,0.0,1.3,32,0.00,,,0.00,WUHU21623XXSP,2013-02-18 04:45:00,
2013-02-17 20:50:00,52.0,22.9,29.95,SW,225,0.0,1.3,32,0.00,,,0.00,WUHU21623XXSP,2013-02-18 04:50:00,
2013-02-17 20:55:00,51.6,22.6,29.95,SW,225,0.0,0.0,32,0.00,,,0.00,WUHU21623XXSP,2013-02-18 04:55:00,
2013-02-17 21:00:00,51.6,22.6,29.95,SW,225,0.0,0.0,32,0.00,,,0.00,WUHU21623XXSP,2013-02-18 05:00:00,
2013-02-17 21:05:00,51.4,22.4,29.95,SW,225,0.0,0.0,32,0.00,,,0.00,WUHU21623XXSP,2013-02-18 05:05:00,
2013-02-17 21:10:00,51.3,22.9,29.96,SW,225,0.0,0.0,33,0.00,,,0.00,WUHU21623XXSP,2013-02-18 05:10:00,
2013-02-17 21:15:00,50.9,22.6,29.96,SW,225,0.0,0.0,33,0.00,,,0.00,WUHU21623XXSP,2013-02-18 05:15:00,
2013-02-17 21:20:00,50.7,22.5,29.96,SW,225,0.0,0.0,33,0.00,,,0.00,WUHU21623XXSP,2013-02-18 05:20:00,
2013-02-17 21:25:00,50.7,22.5,29.96,SW,225,0.0,0.0,33,0.00,,,0.00,WUHU21623XXSP,2013-02-18 05:25:00,
2013-02-17 21:30:00,50.9,22.6,29.96,SW,225,0.0,0.0,33,0.00,,,0.00,WUHU21623XXSP,2013-02-18 05:30:00,
2013-02-17 21:35:00,50.9,22.6,29.96,SW,225,0.0,0.0,33,0.00,,,0.00,WUHU21623XXSP,2013-02-18 05:35:00,
2013-02-17 21:40:00,50.7,22.5,29.96,SW,225,0.0,0.0,33,0.00,,,0.00,WUHU21623XXSP,2013-02-18 05:40:00,
2013-02-17 21:45:00,50.2,22.0,29.96,SW,225,0.0,0.0,33,0.00,,,0.00,WUHU21623XXSP,2013-02-18 05:45:00,
2013-02-17 21:50:00,50.2,22.0,29.96,SW,225,0.0,0.0,33,0.00,,,0.00,WUHU21623XXSP,2013-02-18 05:50:00,
2013-02-17 21:55:00,50.2,22.0,29.96,SW,225,0.0,0.0,33,0.00,,,0.00,WUHU21623XXSP,2013-02-18 05:55:00,
2013-02-17 22:00:00,50.0,21.1,29.96,SW,225,0.0,0.0,32,0.00,,,0.00,WUHU21623XXSP,2013-02-18 06:00:00,
2013-02-17 22:05:00,50.0,21.8,29.96,SW,225,0.0,0.0,33,0.00,,,0.00,WUHU21623XXSP,2013-02-18 06:05:00,
2013-02-17 22:10:00,49.8,21.6,29.96,SW,225,0.0,0.0,33,0.00,,,0.00,WUHU21623XXSP,2013-02-18 06:10:00,
2013-02-17 22:15:00,50.2,22.0,29.96,SW,225,0.0,0.0,33,0.00,,,0.00,WUHU21623XXSP,2013-02-18 06:15:00,
2013-02-17 22:20:00,49.8,21.6,29.96,SW,225,0.0,0.0,33,0.00,,,0.00,WUHU21623XXSP,2013-02-18 06:20:00,
2013-02-17 22:25:00,49.3,21.2,29.97,SW,225,0.0,0.0,33,0.00,,,0.00,WUHU21623XXSP,2013-02-18 06:25:00,
2013-02-17 22:30:00,49.3,21.2,29.96,SW,225,0.0,0.0,33,0.00,,,0.00,WUHU21623XXSP,2013-02-18 06:30:00,
2013-02-17 22:35:00,49.1,21.1,29.97,SW,225,0.0,0.0,33,0.00,,,0.00,WUHU21623XXSP,2013-02-18 06:35:00,
2013-02-17 22:40:00,49.1,21.1,29.96,SW,225,0.0,0.0,33,0.00,,,0.00,WUHU21623XXSP,2013-02-18 06:40:00,
2013-02-17 22:45:00,48.9,20.9,29.97,SW,225,0.0,0.0,33,0.00,,,0.00,WUHU21623XXSP,2013-02-18 06:45:00,
2013-02-17 22:50:00,48.7,20.8,29.97,SW,225,0.0,0.0,33,0.00,,,0.00,WUHU21623XXSP,2013-02-18 06:50:00,
2013-02-17 22:55:00,48.6,21.3,29.97,SW,225,0.0,0.0,34,0.00,,,0.00,WUHU21623XXSP,2013-02-18 06:55:00,
2013-02-17 23:00:00,48.7,21.4,29.97,SW,225,0.0,0.0,34,0.00,,,0.00,WUHU21623XXSP,2013-02-18 07:00:00,
2013-02-17 23:05:00,48.7,21.4,29.97,SW,225,0.0,0.0,34,0.00,,,0.00,WUHU21623XXSP,2013-02-18 07:05:00,
2013-02-17 23:10:00,48.7,21.4,29.97,SW,225,0.0,0.0,34,0.00,,,0.00,WUHU21623XXSP,2013-02-18 07:10:00,
2013-02-17 23:15:00,48.0,20.8,29.97,SW,225,0.0,0.0,34,0.00,,,0.00,WUHU21623XXSP,2013-02-18 07:15:00,
2013-02-17 23:20:00,47.8,21.3,29.97,SW,225,0.0,0.0,35,0.00,,,0.00,WUHU21623XXSP,2013-02-18 07:20:00,
2013-02-17 23:25:00,47.8,21.3,29.97,SW,225,0.0,0.0,35,0.00,,,0.00,WUHU21623XXSP,2013-02-18 07:25:00,
2013-02-17 23:30:00,48.0,21.5,29.96,SW,225,0.0,0.0,35,0.00,,,0.00,WUHU21623XXSP,2013-02-18 07:30:00,
2013-02-17 23:35:00,48.2,21.6,29.97,SW,225,0.0,0.0,35,0.00,,,0.00,WUHU21623XXSP,2013-02-18 07:35:00,
2013-02-17 23:40:00,48.4,21.8,29.97,SW,225,0.0,0.0,35,0.00,,,0.00,WUHU21623XXSP,2013-02-18 07:40:00,
2013-02-17 23:45:00,48.0,21.5,29.97,SW,225,0.0,0.0,35,0.00,,,0.00,WUHU21623XXSP,2013-02-18 07:45:00,
2013-02-17 23:50:00,47.8,21.3,29.97,SW,225,0.0,0.0,35,0.00,,,0.00,WUHU21623XXSP,2013-02-18 07:50:00,
2013-02-17 23:55:00,48.0,21.5,29.97,SW,225,0.0,0.0,35,0.00,,,0.00,WUHU21623XXSP,2013-02-18 07:55:00,